EHI
0 0 0 0 0 1 2 3 3 3 3 3 3 2 1 1 3 3 3 3 2 1 2 3 3 3 3 2 1 0 0 0 0 0 0 0 0 0 0 0 0 0 0
0 0 0 0 0 0 1 2 2 2 1 1 1 1 1 2 3 3 3 3 3 2 3 3 3 3 2 1 0 0 0 0 0 0 0 0 0 0 0 0 0 0 0
0 0 0 0 0 0 1 1 1 0 0 0 1 1 2 2 2 2 2 2 2 2 2 2 2 2 1 0 0 0 0 0 0 0 0 0 0 0 0 0 0 0 0
0 0 0 0 0 0 0 0 0 0 0 0 1 2 2 1 1 1 1 1 1 1 1 1 1 1 0 0 0 0 0 0 0 0 0 0 0 0 0 0 0 0 0
0 0 0 0 0 0 0 0 0 0 0 0 1 1 1 0 0 0 0 0 0 0 0 0 0 0 0 0 0 0 0 0 0 0 0 0 0 0 0 0 0 0 0
0 0 0 0 0 0 0 0 0 0 0 0 0 0 0 0 0 0 0 0 0 0 0 0 0 0 0 0 0 0 0 0 0 0 0 0 0 0 0 0 0 0 0
0 0 0 0 0 0 0 0 0 0 0 0 0 0 0 0 0 0 0 0 0 0 0 0 0 0 0 0 0 0 0 0 0 0 0 0 0 0 0 0 0 0 0
0 0 0 0 0 0 0 0 0 0 0 0 0 0 0 0 0 0 0 0 0 0 0 0 0 1 1 1 1 1 0 0 0 0 0 0 0 0 0 0 0 0 0
0 0 0 0 0 0 0 0 0 0 0 0 0 0 0 0 0 0 0 0 0 0 0 0 0 1 2 2 3 2 1 1 0 0 0 0 0 0 0 0 0 0 0
0 0 0 0 0 0 0 0 0 0 0 0 0 0 0 0 0 0 0 0 0 0 0 0 0 1 1 1 2 2 2 1 1 0 0 0 0 0 0 0 0 0 0
0 0 0 0 0 0 0 0 0 0 0 0 0 0 0 0 0 0 0 0 0 0 0 0 0 0 0 0 1 1 1 1 1 1 0 0 0 0 0 0 0 0 0
0 0 0 0 0 0 0 0 0 0 0 0 0 0 0 0 0 0 0 0 0 0 0 0 0 0 0 0 0 0 0 0 1 1 1 1 1 0 0 0 0 0 0
0 0 0 0 0 0 0 0 0 0 0 0 0 0 0 0 0 0 0 0 0 0 0 0 0 0 0 0 0 0 0 0 0 0 1 2 2 1 0 0 0 0 0
0 0 0 0 0 0 0 0 0 0 0 0 0 0 0 0 0 0 0 0 0 0 0 0 0 0 0 0 0 0 0 0 0 0 1 3 4 2 0 0 0 0 0
0 0 0 0 0 0 0 0 0 0 0 0 0 0 0 0 0 0 0 0 0 0 0 0 0 0 0 0 0 0 0 0 0 0 0 2 3 3 2 2 1 0 0
0 0 0 0 0 0 0 0 0 0 0 0 0 0 0 0 0 0 0 0 0 0 0 0 0 0 0 0 0 0 0 0 0 0 0 0 1 2 2 2 2 1 1
0 0 0 0 0 0 0 0 0 0 0 0 0 0 0 0 0 0 0 0 0 0 0 0 0 0 0 0 0 0 0 0 0 0 0 0 0 1 2 2 2 2 2
0 0 0 0 0 0 0 0 0 0 0 0 0 0 0 0 0 0 0 0 0 0 0 0 0 0 0 0 0 0 0 0 0 0 0 0 0 0 0 0 1 1 2
0 0 0 0 0 0 0 0 0 0 0 0 0 0 0 0 0 0 0 0 0 0 0 0 0 0 0 0 0 0 0 0 0 0 0 0 0 0 0 0 0 0 1
0 0 0 0 0 0 0 0 0 0 0 0 0 0 0 0 0 0 0 0 0 0 0 0 0 0 0 0 0 0 0 0 0 0 0 0 0 0 0 0 0 0 0
0 0 0 0 0 0 0 0 0 0 0 0 0 0 0 0 0 0 0 0 0 0 0 0 0 0 0 0 0 0 0 0 0 0 0 0 0 0 0 0 0 0 0
0 0 0 0 0 0 0 0 0 0 0 0 0 0 0 0 0 0 0 0 0 0 0 0 0 0 0 0 0 0 0 0 0 0 0 0 0 0 0 0 0 0 0
0 0 0 0 0 0 0 0 0 0 0 0 0 0 0 0 0 0 0 0 0 0 0 0 0 0 0 0 0 0 0 0 0 0 0 0 0 0 0 0 0 0 0
0 0 0 0 0 0 0 0 0 0 0 0 0 0 0 0 0 0 0 0 0 0 0 0 0 0 0 0 0 0 0 0 0 0 0 0 0 0 0 0 0 0 0
0 0 0 0 0 0 0 0 0 0 0 0 0 0 0 0 0 0 0 0 0 0 0 0 0 0 0 0 0 0 0 0 0 0 0 0 0 0 0 0 0 0 0
0 0 0 0 0 0 0 0 0 0 0 0 0 0 0 0 0 0 0 0 0 0 0 0 0 0 0 0 0 0 0 0 0 0 0 0 0 0 0 0 0 0 0
Wind_Speed
1 1 3 7 9 10 10 11 11 11 11 11 11 11 10 10 10 9 9 9 8 8 8 8 7 7 7 7 7 6 6 6 7 7 7 6 6 6 6 6 5 4 6
1 1 5 8 9 10 10 10 11 11 11 11 10 10 10 9 9 9 8 8 8 8 8 7 7 7 7 7 6 6 7 6 6 6 6 6 6 6 6 6 5 4 6
3 2 4 8 9 9 10 10 11 10 10 10 9 9 9 9 9 8 8 8 8 8 7 7 7 6 6 6 6 6 6 6 6 6 6 4 3 5 6 6 6 6 5
3 2 4 9 10 9 10 10 10 10 9 9 9 9 8 8 8 8 7 7 7 7 7 6 6 6 6 6 6 6 6 6 6 7 4 3 2 5 5 5 5 5 5
3 2 4 9 9 9 9 10 9 9 9 8 8 8 8 7 7 7 7 7 7 7 7 7 6 6 6 6 6 6 6 6 7 6 4 3 2 4 5 5 5 5 5
4 3 5 9 9 9 9 9 9 8 8 8 7 7 7 7 7 7 7 7 7 7 7 7 6 6 6 6 6 6 7 7 7 4 3 3 2 3 5 5 5 5 5
4 3 4 9 8 8 9 9 9 8 8 8 8 7 7 7 7 7 7 7 7 6 7 7 7 7 7 7 8 8 7 7 5 4 3 2 2 3 4 4 4 4 4
4 4 4 8 8 8 9 8 8 8 8 7 7 7 6 7 7 7 7 7 7 7 7 7 8 8 8 8 8 8 9 8 6 4 3 2 2 3 4 4 4 4 4
4 4 4 4 5 7 8 7 7 7 7 7 6 6 6 7 6 6 6 6 6 7 7 8 8 8 8 8 9 9 10 9 5 3 3 2 3 3 4 4 4 4 4
4 4 4 4 4 4 4 5 6 5 6 6 6 6 6 7 7 6 6 6 6 7 7 8 8 9 9 9 10 10 10 8 4 4 2 2 4 4 4 4 4 4 4
3 3 3 3 3 3 3 4 5 5 6 6 6 7 6 4 4 4 5 5 6 7 7 8 8 9 9 9 10 10 8 3 4 3 2 5 6 5 5 5 4 4 4
2 1 1 2 2 2 3 3 3 3 4 4 3 4 3 3 3 4 6 7 7 7 8 8 9 8 7 4 7 8 4 4 4 3 3 7 7 6 6 6 5 5 5
1 1 1 1 2 2 2 2 2 2 2 3 3 3 2 3 3 3 3 4 4 6 5 6 6 4 4 3 4 4 4 4 3 3 4 8 8 7 7 7 7 7 7
2 1 1 1 2 1 2 2 2 2 2 2 3 3 2 2 3 3 2 2 3 2 3 3 3 4 4 4 4 4 5 3 3 3 5 10 9 8 8 8 8 8 8
2 2 1 1 1 1 1 1 2 2 2 2 2 2 3 2 2 2 2 2 3 2 3 3 3 4 4 4 4 4 5 5 5 5 4 11 12 10 9 9 8 9 9
3 3 2 1 1 2 2 1 1 1 2 2 2 2 3 2 2 2 2 3 3 3 2 3 4 4 4 4 5 5 5 4 5 6 5 7 12 12 11 10 9 9 9
4 3 2 2 2 2 2 2 2 2 2 2 2 2 3 3 2 2 2 2 2 2 3 4 4 4 4 4 5 5 4 5 5 6 6 5 6 11 13 11 10 10 9
4 3 3 3 3 3 3 2 2 2 2 2 2 2 3 3 3 3 3 2 2 2 3 3 3 4 4 4 4 4 4 4 6 6 5 5 5 5 9 13 12 11 11
5 5 4 3 3 3 3 3 3 3 3 2 2 2 3 3 3 3 3 2 2 3 3 3 3 3 3 3 4 4 4 4 5 5 6 6 5 5 5 9 12 13 12
4 5 5 4 4 4 3 3 3 3 3 3 3 2 3 3 3 3 3 3 3 3 3 3 4 3 3 2 4 5 4 4 4 5 5 4 5 6 6 6 6 8 12
4 4 4 5 4 3 2 2 2 2 2 2 3 3 3 3 3 3 3 3 3 3 3 3 3 4 3 2 3 3 3 4 4 4 4 4 5 5 5 6 5 4 5
5 4 4 5 4 3 2 2 2 2 1 1 2 3 3 3 3 3 3 3 3 3 3 3 3 2 2 2 2 2 2 4 4 4 4 4 4 4 5 5 5 5 4
5 5 5 5 4 3 3 3 3 3 3 2 3 2 3 3 3 3 3 3 3 2 2 2 2 3 2 1 2 3 3 1 1 3 4 3 4 3 3 3 5 5 5
6 5 5 5 4 3 4 4 4 2 1 0 0 1 2 3 3 3 3 3 3 2 2 2 2 2 3 2 1 2 2 3 2 1 3 3 3 3 4 4 4 4 4
6 5 5 5 4 3 4 4 4 3 1 1 1 2 3 3 3 3 2 2 2 2 2 2 2 2 2 2 2 1 2 2 2 2 0 3 3 3 2 3 3 3 4
4 5 5 5 4 3 4 4 4 4 3 2 1 1 2 2 2 3 2 2 2 2 2 2 2 2 2 2 2 2 2 2 1 2 2 0 1 2 2 2 2 2 2
Wind_Direction
331 291 124 111 109 106 103 100 97 94 93 92 93 92 91 90 88 84 80 78 76 75 74 73 76 77 76 74 73 75 76 81 81 77 73 72 74 81 83 84 81 70 86
149 108 118 108 108 104 100 98 98 96 92 91 90 89 89 87 86 85 82 78 75 73 73 75 75 76 75 69 69 72 74 77 79 77 73 66 73 81 79 81 84 77 82
96 89 107 112 107 102 99 99 98 95 93 91 90 88 87 85 84 82 81 77 74 72 71 71 73 75 73 65 65 67 70 74 75 76 69 45 48 78 77 77 79 80 77
105 95 110 109 105 103 100 98 98 97 95 93 89 85 83 82 80 78 76 74 73 72 71 70 71 74 72 70 65 63 70 76 75 72 59 42 33 81 82 77 71 76 72
89 81 113 107 104 103 99 95 97 97 94 92 89 84 79 78 77 74 71 67 66 68 67 66 67 69 67 66 65 64 71 74 68 61 52 40 29 77 82 76 69 68 66
90 83 107 104 105 103 100 99 98 94 91 89 87 82 77 74 71 69 68 67 66 66 65 63 63 66 67 65 66 69 69 68 61 53 47 34 27 69 81 76 71 64 59
98 87 101 105 106 106 102 99 94 91 87 85 83 78 72 67 64 64 63 65 65 63 62 60 60 67 67 66 66 70 70 70 65 54 45 32 28 61 75 72 64 61 56
100 88 89 100 104 103 98 93 88 85 80 75 74 70 65 63 58 57 59 61 62 58 58 58 60 60 63 64 66 68 68 67 60 49 39 18 30 61 74 74 65 59 53
83 73 62 63 73 84 87 88 83 76 70 65 62 59 56 55 51 51 51 56 58 57 59 62 62 59 59 62 66 65 64 60 50 32 29 13 29 49 65 74 73 61 53
78 69 59 53 50 48 48 66 68 64 58 52 46 44 43 42 39 40 37 48 55 58 60 63 66 64 63 64 67 65 60 50 33 22 8 17 34 41 61 68 67 57 48
82 60 58 56 45 41 31 41 43 44 41 37 32 32 34 27 21 21 24 45 55 57 61 66 69 68 66 63 68 64 54 38 24 11 1 34 42 51 60 61 61 52 43
107 68 67 58 43 28 31 37 24 30 26 26 24 25 28 29 24 29 22 40 49 56 61 65 68 67 62 50 56 56 43 33 25 11 22 39 46 53 58 59 56 53 49
144 127 99 77 49 43 39 36 23 21 20 20 24 31 38 39 30 28 27 30 34 44 48 55 57 54 57 56 54 48 39 35 24 11 24 40 45 55 61 62 57 57 53
131 174 127 101 78 50 51 41 31 27 20 22 23 39 52 50 40 31 35 32 37 44 57 57 61 59 60 58 59 53 42 36 28 15 24 37 43 55 60 60 58 55 49
163 190 189 137 121 93 63 41 50 35 33 28 29 36 60 70 58 47 38 42 43 51 63 66 66 64 61 54 56 57 46 39 34 29 18 33 39 46 53 56 56 53 48
177 182 164 130 130 108 86 69 57 48 44 44 39 35 53 71 75 68 53 48 46 52 64 75 77 75 63 59 52 48 43 37 34 33 28 27 34 40 46 51 52 50 48
172 166 147 132 111 103 93 88 76 54 54 51 43 39 50 67 78 84 77 61 49 60 72 76 73 68 65 59 49 44 42 38 39 36 33 27 24 33 39 46 48 48 48
158 154 149 136 119 107 97 86 70 58 57 47 43 43 44 59 76 81 79 66 61 72 77 80 74 72 61 57 51 38 36 36 38 39 38 32 29 29 31 39 44 47 49
160 151 139 125 122 110 95 81 71 62 55 44 42 44 43 55 64 77 76 68 73 79 76 90 71 79 78 70 67 48 36 37 32 39 38 34 32 33 30 33 38 42 45
145 140 136 128 119 107 90 75 59 50 40 34 36 41 48 56 66 76 76 68 73 81 74 81 87 69 73 75 76 58 39 35 36 34 31 32 30 33 33 33 27 28 37
136 135 140 137 136 124 106 97 81 54 24 21 24 34 46 56 66 77 80 69 71 85 96 103 96 81 61 51 74 45 21 32 41 31 25 33 31 29 34 33 29 26 22
160 156 152 153 155 153 136 125 116 108 66 29 13 29 35 49 57 78 84 81 77 91 88 87 100 98 62 41 96 89 26 2 9 22 22 33 27 24 31 32 29 29 22
173 174 170 168 161 148 129 104 81 57 37 26 18 14 12 37 59 73 82 85 82 93 109 107 116 125 130 53 64 124 129 202 326 354 14 22 21 24 15 17 29 24 22
190 179 169 166 155 144 137 134 129 122 122 249 347 2 14 36 54 70 85 89 88 88 100 111 107 118 132 129 66 58 108 148 137 10 347 1 17 22 12 16 15 14 13
183 174 166 157 149 146 148 148 135 128 134 85 43 43 35 29 38 58 78 89 89 87 93 90 92 97 117 136 137 119 86 67 89 129 353 338 355 355 1 3 4 3 2
173 165 159 157 157 155 152 152 150 148 141 118 86 60 34 21 18 36 62 73 82 83 89 91 93 96 98 109 118 128 138 136 145 135 147 289 336 326 340 351 1 354 353